Kokomo, IN

12:32 PM EDT on May 26, 2017 (GMT -0400)
Kokomo Municipal

Weather History for KOKK - October, 2012

Change the Weather History Date:

Friday, October 12, 2012

  Actual Average (KGUS) Record (KGUS)
Temperature  
Mean Temperature 47 °F -  
Max Temperature 55 °F 62 °F 86 °F (2008)
Min Temperature 39 °F 43 °F 30 °F (2006)
Degree Days  
Heating Degree Days 18    
Moisture  
Dew Point 33 °F    
Average Humidity 59    
Maximum Humidity 82    
Minimum Humidity 33    
Precipitation  
Precipitation 0.00 in - - ()
Sea Level Pressure  
Sea Level Pressure 30.33 in    
Wind  
Wind Speed 10 mph (ENE)    
Max Wind Speed 18 mph    
Max Gust Speed 22 mph    
Visibility 10 miles    
Events      
Averages and records for this station are not official NWS values.
T = Trace of Precipitation, MM = Missing Value Source: NWS Daily Summary

Daily Weather History Graph

Daily Weather History Graph

Search for Another Location

Airport or City:

Trip Planner

Search our weather history database for the weather conditions in past years. The results will help you decide how hot, cold, wet, or windy it might be!

Date:

Astronomy

Oct. 12, 2012 Rise Set
Actual Time 6:52 AM CDT 6:07 PM CDT
Civil Twilight 6:25 AM CDT 6:35 PM CDT
Nautical Twilight 5:53 AM CDT 7:06 PM CDT
Astronomical Twilight 5:21 AM CDT 7:38 PM CDT
Moon 3:34 AM CDT (10/12) 4:17 PM CDT (10/12)
Length of Visible Light 12h 10m
Length of Day
11h 15m
Waning Crescent, 10% of the Moon is Illuminated
Oct 12
Waning Crescent
Oct 15
New
Oct 21
First Quarter
Oct 29
Full
Nov 6
Last Quarter

Hourly Weather History & Observations

Time (CDT) Temp. Windchill Dew Point Humidity Pressure Visibility Wind Dir Wind Speed Gust Speed Precip Events Conditions
12:15 AM 53.6 °F - 37.4 °F 54% 30.19 in 10.0 mi NW 12.7 mph - N/A   Clear
12:35 AM 51.8 °F - 39.2 °F 62% 30.20 in 10.0 mi NW 9.2 mph - N/A   Clear
12:55 AM 51.8 °F - 37.4 °F 58% 30.20 in 10.0 mi NW 4.6 mph - N/A   Partly Cloudy
1:15 AM 50.0 °F - 37.4 °F 62% 30.20 in 10.0 mi NNW 5.8 mph - N/A   Partly Cloudy
1:35 AM 48.2 °F - 37.4 °F 66% 30.20 in 10.0 mi NNE 9.2 mph - N/A   Clear
1:55 AM 48.2 °F - 39.2 °F 71% 30.20 in 10.0 mi NNE 9.2 mph - N/A   Clear
2:15 AM 48.2 °F - 41.0 °F 76% 30.21 in 10.0 mi NNE 10.4 mph - N/A   Clear
2:35 AM 48.2 °F - 41.0 °F 76% 30.21 in 10.0 mi North 11.5 mph - N/A   Clear
2:55 AM 48.2 °F - 42.8 °F 82% 30.22 in 10.0 mi North 6.9 mph - N/A   Scattered Clouds
3:15 AM 48.2 °F - 42.8 °F 82% 30.23 in 10.0 mi North 8.1 mph - N/A   Overcast
3:35 AM 48.2 °F - 41.0 °F 76% 30.24 in 10.0 mi North 11.5 mph - N/A   Mostly Cloudy
3:55 AM 46.4 °F 41.9 °F 39.2 °F 76% 30.25 in 10.0 mi North 9.2 mph - N/A   Scattered Clouds
4:15 AM 46.4 °F 42.9 °F 39.2 °F 76% 30.27 in 10.0 mi NNE 6.9 mph - N/A   Scattered Clouds
4:35 AM 46.4 °F 42.4 °F 39.2 °F 76% 30.28 in 10.0 mi NNE 8.1 mph - N/A   Mostly Cloudy
4:55 AM 46.4 °F 42.4 °F 39.2 °F 76% 30.29 in 10.0 mi NE 8.1 mph - N/A   Overcast
5:15 AM 46.4 °F 41.1 °F 39.2 °F 76% 30.29 in 10.0 mi NE 11.5 mph - N/A   Overcast
5:55 AM 46.4 °F 41.1 °F 39.2 °F 76% 30.30 in 10.0 mi NE 11.5 mph - N/A   Overcast
6:15 AM 46.4 °F 40.7 °F 37.4 °F 71% 30.31 in 10.0 mi NE 12.7 mph - N/A   Overcast
6:35 AM 44.6 °F 38.4 °F 37.4 °F 76% 30.32 in 10.0 mi NE 12.7 mph - N/A   Mostly Cloudy
6:55 AM 44.6 °F 38.4 °F 37.4 °F 76% 30.32 in 10.0 mi NE 12.7 mph - N/A   Partly Cloudy
7:15 AM 42.8 °F 37.0 °F 37.4 °F 81% 30.34 in 10.0 mi NE 10.4 mph - N/A   Clear
7:35 AM 42.8 °F 38.6 °F 37.4 °F 81% 30.35 in 10.0 mi NE 6.9 mph - N/A   Clear
7:55 AM 44.6 °F 40.2 °F 37.4 °F 76% 30.37 in 10.0 mi NE 8.1 mph - N/A   Clear
8:15 AM 46.4 °F 41.1 °F 37.4 °F 71% 30.38 in 10.0 mi NE 11.5 mph - N/A   Clear
8:35 AM 46.4 °F 39.2 °F 35.6 °F 66% 30.38 in 10.0 mi ENE 18.4 mph 21.9 mph N/A   Clear
8:55 AM 46.4 °F 40.1 °F 35.6 °F 66% 30.39 in 10.0 mi NE 15.0 mph 20.7 mph N/A   Partly Cloudy
9:15 AM 46.4 °F 41.1 °F 37.4 °F 71% 30.40 in 10.0 mi NE 11.5 mph - N/A   Clear
9:35 AM 48.2 °F - 37.4 °F 66% 30.40 in 10.0 mi ENE 13.8 mph - N/A   Clear
9:55 AM 48.2 °F - 37.4 °F 66% 30.41 in 10.0 mi ENE 11.5 mph 18.4 mph N/A   Clear
10:15 AM 50.0 °F - 35.6 °F 58% 30.41 in 10.0 mi ENE 13.8 mph - N/A   Clear
10:35 AM 50.0 °F - 33.8 °F 54% 30.42 in 10.0 mi ENE 15.0 mph - N/A   Clear
11:15 AM 51.8 °F - 33.8 °F 50% 30.41 in 10.0 mi ENE 13.8 mph - N/A   Clear
11:35 AM 51.8 °F - 30.2 °F 44% 30.41 in 10.0 mi East 12.7 mph 18.4 mph N/A   Clear
12:15 PM 53.6 °F - 32.0 °F 44% 30.40 in 10.0 mi East 12.7 mph 17.3 mph N/A   Clear
12:35 PM 53.6 °F - 32.0 °F 44% 30.40 in 10.0 mi East 9.2 mph - N/A   Clear
12:55 PM 53.6 °F - 30.2 °F 41% 30.39 in 10.0 mi East 8.1 mph - N/A   Clear
1:35 PM 53.6 °F - 28.4 °F 38% 30.38 in 10.0 mi ENE 6.9 mph - N/A   Clear
1:55 PM 53.6 °F - 28.4 °F 38% 30.37 in 10.0 mi NE 8.1 mph - N/A   Clear
2:15 PM 53.6 °F - 28.4 °F 38% 30.37 in 10.0 mi NE 11.5 mph - N/A   Clear
2:35 PM 55.4 °F - 26.6 °F 33% 30.36 in 10.0 mi SE 9.2 mph - N/A   Clear
2:55 PM 55.4 °F - 26.6 °F 33% 30.36 in 10.0 mi ESE 6.9 mph - N/A   Clear
3:15 PM 55.4 °F - 26.6 °F 33% 30.36 in 10.0 mi East 10.4 mph - N/A   Clear
3:35 PM 55.4 °F - 26.6 °F 33% 30.35 in 10.0 mi East 8.1 mph - N/A   Clear
3:55 PM 55.4 °F - 26.6 °F 33% 30.35 in 10.0 mi East 9.2 mph - N/A   Clear
4:15 PM 55.4 °F - 28.4 °F 36% 30.35 in 10.0 mi East 5.8 mph - N/A   Clear
4:35 PM 55.4 °F - 26.6 °F 33% 30.35 in 10.0 mi East 8.1 mph - N/A   Clear
4:55 PM 53.6 °F - 26.6 °F 35% 30.35 in 10.0 mi East 9.2 mph - N/A   Clear
5:15 PM 53.6 °F - 26.6 °F 35% 30.35 in 10.0 mi East 8.1 mph - N/A   Clear
5:55 PM 51.8 °F - 26.6 °F 38% 30.35 in 10.0 mi ESE 5.8 mph - N/A   Clear
6:15 PM 48.2 °F - 26.6 °F 43% 30.35 in 10.0 mi East 5.8 mph - N/A   Clear
6:35 PM 46.4 °F 42.9 °F 26.6 °F 46% 30.35 in 10.0 mi East 6.9 mph - N/A   Clear
6:55 PM 44.6 °F 40.7 °F 28.4 °F 53% 30.35 in 10.0 mi East 6.9 mph - N/A   Clear
7:15 PM 44.6 °F 41.4 °F 26.6 °F 49% 30.35 in 10.0 mi East 5.8 mph - N/A   Clear
7:35 PM 41.0 °F 37.1 °F 28.4 °F 61% 30.35 in 10.0 mi East 5.8 mph - N/A   Clear
7:55 PM 41.0 °F 38.0 °F 28.4 °F 61% 30.35 in 10.0 mi East 4.6 mph - N/A   Clear
8:15 PM 41.0 °F 36.4 °F 28.4 °F 61% 30.35 in 10.0 mi East 6.9 mph - N/A   Clear
8:35 PM 41.0 °F 37.1 °F 28.4 °F 61% 30.34 in 10.0 mi ESE 5.8 mph - N/A   Clear
9:15 PM 41.0 °F 37.1 °F 28.4 °F 61% 30.35 in 10.0 mi ESE 5.8 mph - N/A   Clear
9:35 PM 39.2 °F 35.0 °F 28.4 °F 65% 30.35 in 10.0 mi ESE 5.8 mph - N/A   Clear
9:55 PM 39.2 °F 33.6 °F 28.4 °F 65% 30.34 in 10.0 mi East 8.1 mph - N/A   Clear
10:15 PM 39.2 °F 33.6 °F 26.6 °F 61% 30.34 in 10.0 mi ESE 8.1 mph - N/A   Clear
10:55 PM 39.2 °F 34.2 °F 28.4 °F 65% 30.32 in 10.0 mi ESE 6.9 mph - N/A   Clear
11:15 PM 39.2 °F 34.2 °F 28.4 °F 65% 30.32 in 10.0 mi ESE 6.9 mph - N/A   Clear
11:35 PM 39.2 °F 34.2 °F 28.4 °F 65% 30.31 in 10.0 mi ESE 6.9 mph - N/A   Clear
11:55 PM 39.2 °F 34.2 °F 26.6 °F 61% 30.31 in 10.0 mi ESE 6.9 mph - N/A   Clear